Time,TemperatureF,DewpointF,PressureIn,WindDirection,WindDirectionDegrees,WindSpeedMPH,WindSpeedGustMPH,Humidity,HourlyPrecipIn,Conditions,Clouds,dailyrainin,SoftwareType,DateUTC
2013-07-10 00:12:00,77.2,75.0,30.13,WSW,248,0.0,1.0,91,0.00,,,0.00,weatherlink.com 1.10,2013-07-10 04:12:00,
2013-07-10 00:27:00,77.0,74.0,30.13,WSW,240,0.0,0.0,91,0.00,,,0.00,weatherlink.com 1.10,2013-07-10 04:27:00,
2013-07-10 00:42:00,76.8,74.0,30.13,SSE,157,0.0,1.0,92,0.00,,,0.00,weatherlink.com 1.10,2013-07-10 04:42:00,
2013-07-10 00:57:00,76.7,74.0,30.13,SSE,161,0.0,0.0,92,0.00,,,0.00,weatherlink.com 1.10,2013-07-10 04:57:00,
2013-07-10 01:12:00,76.7,74.0,30.12,SSE,161,0.0,0.0,92,0.00,,,0.00,weatherlink.com 1.10,2013-07-10 05:12:00,
2013-07-10 01:27:00,76.4,74.0,30.11,SSE,165,0.0,0.0,92,0.00,,,0.00,weatherlink.com 1.10,2013-07-10 05:27:00,
2013-07-10 01:43:00,76.4,74.0,30.11,SSE,163,0.0,0.0,92,0.00,,,0.00,weatherlink.com 1.10,2013-07-10 05:43:00,
2013-07-10 01:58:00,76.4,74.0,30.11,West,262,0.0,0.0,92,0.00,,,0.00,weatherlink.com 1.10,2013-07-10 05:58:00,
2013-07-10 02:13:00,76.2,74.0,30.11,West,260,0.0,0.0,92,0.00,,,0.00,weatherlink.com 1.10,2013-07-10 06:13:00,
2013-07-10 02:28:00,75.7,73.0,30.10,West,260,0.0,0.0,92,0.00,,,0.00,weatherlink.com 1.10,2013-07-10 06:28:00,
2013-07-10 02:43:00,75.2,73.0,30.10,West,260,0.0,0.0,93,0.00,,,0.00,weatherlink.com 1.10,2013-07-10 06:43:00,
2013-07-10 02:58:00,74.9,73.0,30.10,West,260,0.0,0.0,94,0.00,,,0.00,weatherlink.com 1.10,2013-07-10 06:58:00,
2013-07-10 03:13:00,74.6,73.0,30.09,West,260,0.0,0.0,94,0.00,,,0.00,weatherlink.com 1.10,2013-07-10 07:13:00,
2013-07-10 03:28:00,74.5,73.0,30.09,West,260,0.0,0.0,95,0.00,,,0.00,weatherlink.com 1.10,2013-07-10 07:28:00,
2013-07-10 03:43:00,74.3,73.0,30.09,West,262,0.0,0.0,95,0.00,,,0.00,weatherlink.com 1.10,2013-07-10 07:43:00,
2013-07-10 03:58:00,74.2,73.0,30.09,West,260,0.0,0.0,95,0.00,,,0.00,weatherlink.com 1.10,2013-07-10 07:58:00,
2013-07-10 04:13:00,73.9,72.0,30.09,West,260,0.0,0.0,95,0.00,,,0.00,weatherlink.com 1.10,2013-07-10 08:13:00,
2013-07-10 04:28:00,74.0,73.0,30.09,West,262,0.0,0.0,95,0.00,,,0.00,weatherlink.com 1.10,2013-07-10 08:28:00,
2013-07-10 04:43:00,74.0,73.0,30.09,WSW,258,0.0,0.0,95,0.00,,,0.00,weatherlink.com 1.10,2013-07-10 08:43:00,
2013-07-10 04:58:00,73.7,72.0,30.09,WSW,258,0.0,0.0,95,0.00,,,0.00,weatherlink.com 1.10,2013-07-10 08:58:00,
2013-07-10 05:13:00,73.6,72.0,30.09,West,261,0.0,0.0,96,0.00,,,0.00,weatherlink.com 1.10,2013-07-10 09:13:00,
2013-07-10 05:28:00,73.6,72.0,30.09,West,261,0.0,0.0,96,0.00,,,0.00,weatherlink.com 1.10,2013-07-10 09:28:00,
2013-07-10 05:43:00,73.3,72.0,30.09,West,261,0.0,0.0,96,0.00,,,0.00,weatherlink.com 1.10,2013-07-10 09:43:00,
2013-07-10 05:58:00,72.9,72.0,30.09,West,261,0.0,0.0,96,0.00,,,0.00,weatherlink.com 1.10,2013-07-10 09:58:00,
2013-07-10 06:13:00,72.7,72.0,30.09,West,261,0.0,0.0,96,0.00,,,0.00,weatherlink.com 1.10,2013-07-10 10:13:00,
2013-07-10 06:28:00,73.0,72.0,30.09,WSW,258,0.0,0.0,97,0.00,,,0.00,weatherlink.com 1.10,2013-07-10 10:28:00,
2013-07-10 06:43:00,73.3,72.0,30.09,West,261,0.0,0.0,97,0.00,,,0.00,weatherlink.com 1.10,2013-07-10 10:43:00,
2013-07-10 06:58:00,73.6,73.0,30.09,West,261,0.0,0.0,97,0.00,,,0.00,weatherlink.com 1.10,2013-07-10 10:58:00,
2013-07-10 07:13:00,74.5,74.0,30.09,West,261,0.0,0.0,97,0.00,,,0.00,weatherlink.com 1.10,2013-07-10 11:13:00,
2013-07-10 07:28:00,75.8,75.0,30.09,WSW,258,0.0,0.0,96,0.00,,,0.00,weatherlink.com 1.10,2013-07-10 11:28:00,
2013-07-10 07:43:00,77.5,75.0,30.10,WSW,258,1.0,1.0,92,0.00,,,0.00,weatherlink.com 1.10,2013-07-10 11:43:00,
2013-07-10 07:58:00,79.2,76.0,30.10,West,260,0.0,3.0,89,0.00,,,0.00,weatherlink.com 1.10,2013-07-10 11:58:00,
2013-07-10 08:13:00,80.0,76.0,30.10,West,262,1.0,3.0,87,0.00,,,0.00,weatherlink.com 1.10,2013-07-10 12:13:00,
2013-07-10 08:28:00,80.3,76.0,30.10,WSW,241,0.0,4.0,86,0.00,,,0.00,weatherlink.com 1.10,2013-07-10 12:28:00,
2013-07-10 08:43:00,81.2,76.0,30.10,WSW,258,1.0,3.0,84,0.00,,,0.00,weatherlink.com 1.10,2013-07-10 12:43:00,
2013-07-10 08:58:00,82.3,76.0,30.11,SW,217,2.0,6.0,80,0.00,,,0.00,weatherlink.com 1.10,2013-07-10 12:58:00,
2013-07-10 09:13:00,82.3,76.0,30.11,WNW,303,1.0,6.0,81,0.00,,,0.00,weatherlink.com 1.10,2013-07-10 13:13:00,
2013-07-10 09:28:00,83.0,76.0,30.11,SW,234,2.0,5.0,80,0.00,,,0.00,weatherlink.com 1.10,2013-07-10 13:28:00,
2013-07-10 09:43:00,83.8,76.0,30.11,West,265,4.0,7.0,77,0.00,,,0.00,weatherlink.com 1.10,2013-07-10 13:43:00,
2013-07-10 09:58:00,83.2,75.0,30.11,SW,215,2.0,5.0,76,0.00,,,0.00,weatherlink.com 1.10,2013-07-10 13:58:00,
2013-07-10 10:13:00,83.6,75.0,30.10,SW,216,1.0,4.0,75,0.00,,,0.00,weatherlink.com 1.10,2013-07-10 14:13:00,
2013-07-10 10:28:00,83.6,75.0,30.10,West,281,0.0,5.0,75,0.00,,,0.00,weatherlink.com 1.10,2013-07-10 14:28:00,
2013-07-10 10:44:00,85.8,76.0,30.10,WNW,296,2.0,8.0,72,0.00,,,0.00,weatherlink.com 1.10,2013-07-10 14:44:00,
2013-07-10 10:59:00,85.4,76.0,30.10,SW,225,1.0,6.0,74,0.00,,,0.00,weatherlink.com 1.10,2013-07-10 14:59:00,
2013-07-10 11:14:00,85.6,76.0,30.10,South,191,2.0,7.0,73,0.00,,,0.00,weatherlink.com 1.10,2013-07-10 15:14:00,
2013-07-10 11:29:00,85.4,77.0,30.10,SSE,156,1.0,5.0,75,0.00,,,0.00,weatherlink.com 1.10,2013-07-10 15:29:00,
2013-07-10 11:44:00,85.3,77.0,30.10,WSW,251,1.0,6.0,75,0.00,,,0.00,weatherlink.com 1.10,2013-07-10 15:44:00,
2013-07-10 11:59:00,83.9,76.0,30.10,SSE,163,3.0,4.0,78,0.00,,,0.00,weatherlink.com 1.10,2013-07-10 15:59:00,
2013-07-10 12:14:00,85.2,77.0,30.09,SSE,166,5.0,7.0,76,0.00,,,0.00,weatherlink.com 1.10,2013-07-10 16:14:00,
2013-07-10 12:29:00,85.9,77.0,30.09,WSW,254,2.0,9.0,74,0.00,,,0.00,weatherlink.com 1.10,2013-07-10 16:29:00,
2013-07-10 12:44:00,86.4,76.0,30.09,SE,135,6.0,8.0,72,0.00,,,0.00,weatherlink.com 1.10,2013-07-10 16:44:00,
2013-07-10 12:59:00,87.2,78.0,30.08,WSW,237,1.0,9.0,73,0.00,,,0.00,weatherlink.com 1.10,2013-07-10 16:59:00,
2013-07-10 13:14:00,87.3,77.0,30.08,SE,135,1.0,7.0,71,0.00,,,0.00,weatherlink.com 1.10,2013-07-10 17:14:00,
2013-07-10 13:29:00,87.5,76.0,30.07,SE,144,3.0,7.0,69,0.00,,,0.00,weatherlink.com 1.10,2013-07-10 17:29:00,
2013-07-10 13:44:00,87.6,76.0,30.07,WSW,249,2.0,8.0,68,0.00,,,0.00,weatherlink.com 1.10,2013-07-10 17:44:00,
2013-07-10 13:59:00,88.0,77.0,30.07,SSW,213,3.0,8.0,69,0.00,,,0.00,weatherlink.com 1.10,2013-07-10 17:59:00,
2013-07-10 14:14:00,87.5,76.0,30.06,SSE,158,3.0,10.0,68,0.00,,,0.00,weatherlink.com 1.10,2013-07-10 18:14:00,
2013-07-10 14:29:00,86.5,74.0,30.05,ESE,108,2.0,8.0,67,0.00,,,0.00,weatherlink.com 1.10,2013-07-10 18:29:00,
2013-07-10 14:44:00,86.8,74.0,30.05,SE,132,5.0,12.0,66,0.00,,,0.00,weatherlink.com 1.10,2013-07-10 18:44:00,
2013-07-10 14:59:00,87.3,74.0,30.05,South,172,5.0,7.0,65,0.00,,,0.00,weatherlink.com 1.10,2013-07-10 18:59:00,
2013-07-10 15:14:00,87.1,74.0,30.04,SSE,158,5.0,11.0,65,0.00,,,0.00,weatherlink.com 1.10,2013-07-10 19:14:00,
2013-07-10 15:29:00,87.0,76.0,30.04,South,170,3.0,11.0,70,0.00,,,0.00,weatherlink.com 1.10,2013-07-10 19:29:00,
2013-07-10 15:44:00,85.4,76.0,30.03,SW,229,1.0,8.0,74,0.00,,,0.00,weatherlink.com 1.10,2013-07-10 19:44:00,
2013-07-10 15:59:00,84.6,77.0,30.02,WSW,239,1.0,10.0,78,0.00,,,0.00,weatherlink.com 1.10,2013-07-10 19:59:00,
2013-07-10 16:14:00,84.6,76.0,30.02,South,181,4.0,10.0,76,0.00,,,0.00,weatherlink.com 1.10,2013-07-10 20:14:00,
2013-07-10 16:29:00,85.2,77.0,30.02,WSW,247,5.0,9.0,76,0.00,,,0.00,weatherlink.com 1.10,2013-07-10 20:29:00,
2013-07-10 16:44:00,86.1,77.0,30.02,East,82,7.0,10.0,75,0.00,,,0.00,weatherlink.com 1.10,2013-07-10 20:44:00,
2013-07-10 16:59:00,85.6,76.0,30.01,SW,220,8.0,9.0,73,0.00,,,0.00,weatherlink.com 1.10,2013-07-10 20:59:00,
2013-07-10 17:14:00,85.3,77.0,30.01,WSW,240,4.0,6.0,75,0.00,,,0.00,weatherlink.com 1.10,2013-07-10 21:14:00,
2013-07-10 17:29:00,85.2,76.0,30.01,SE,129,4.0,10.0,73,0.00,,,0.00,weatherlink.com 1.10,2013-07-10 21:29:00,
2013-07-10 17:44:00,85.1,75.0,30.01,SW,232,5.0,9.0,72,0.00,,,0.00,weatherlink.com 1.10,2013-07-10 21:44:00,
2013-07-10 17:59:00,85.3,75.0,30.00,South,186,3.0,8.0,72,0.00,,,0.00,weatherlink.com 1.10,2013-07-10 21:59:00,
2013-07-10 18:14:00,84.9,75.0,30.00,East,84,2.0,7.0,73,0.00,,,0.00,weatherlink.com 1.10,2013-07-10 22:14:00,
2013-07-10 18:29:00,84.5,75.0,29.99,WSW,258,2.0,9.0,74,0.00,,,0.00,weatherlink.com 1.10,2013-07-10 22:29:00,
2013-07-10 18:44:00,82.8,75.0,29.99,ESE,123,2.0,7.0,78,0.00,,,0.00,weatherlink.com 1.10,2013-07-10 22:44:00,
2013-07-10 18:59:00,82.5,75.0,29.99,WSW,241,4.0,9.0,79,0.00,,,0.00,weatherlink.com 1.10,2013-07-10 22:59:00,
2013-07-10 19:14:00,82.1,75.0,29.99,SSW,209,0.0,5.0,79,0.00,,,0.00,weatherlink.com 1.10,2013-07-10 23:14:00,
2013-07-10 19:29:00,81.9,75.0,29.98,South,190,2.0,6.0,80,0.00,,,0.00,weatherlink.com 1.10,2013-07-10 23:29:00,
2013-07-10 19:44:00,81.6,75.0,29.98,SSW,212,2.0,5.0,81,0.00,,,0.00,weatherlink.com 1.10,2013-07-10 23:44:00,
2013-07-10 19:59:00,80.8,75.0,29.98,NNW,328,0.0,2.0,83,0.00,,,0.00,weatherlink.com 1.10,2013-07-10 23:59:00,
2013-07-10 20:14:00,80.2,75.0,29.98,SW,218,0.0,3.0,83,0.00,,,0.00,weatherlink.com 1.10,2013-07-11 00:14:00,
2013-07-10 20:29:00,79.5,74.0,29.98,South,189,0.0,1.0,84,0.00,,,0.00,weatherlink.com 1.10,2013-07-11 00:29:00,
2013-07-10 20:44:00,78.8,74.0,29.99,SW,223,0.0,0.0,85,0.00,,,0.00,weatherlink.com 1.10,2013-07-11 00:44:00,
2013-07-10 20:59:00,78.1,74.0,30.00,SW,225,0.0,0.0,87,0.00,,,0.00,weatherlink.com 1.10,2013-07-11 00:59:00,
2013-07-10 21:15:00,77.5,74.0,30.00,SW,225,0.0,0.0,88,0.00,,,0.00,weatherlink.com 1.10,2013-07-11 01:15:00,
2013-07-10 21:30:00,77.1,74.0,30.00,SW,223,0.0,0.0,89,0.00,,,0.00,weatherlink.com 1.10,2013-07-11 01:30:00,
2013-07-10 21:45:00,76.4,73.0,30.01,SW,222,0.0,0.0,90,0.00,,,0.00,weatherlink.com 1.10,2013-07-11 01:45:00,
2013-07-10 22:00:00,76.1,74.0,30.01,SW,222,0.0,0.0,92,0.00,,,0.00,weatherlink.com 1.10,2013-07-11 02:00:00,
2013-07-10 22:15:00,76.0,74.0,30.02,SW,222,0.0,0.0,93,0.00,,,0.00,weatherlink.com 1.10,2013-07-11 02:15:00,
2013-07-10 22:30:00,75.7,74.0,30.02,SW,222,0.0,0.0,93,0.00,,,0.00,weatherlink.com 1.10,2013-07-11 02:30:00,
2013-07-10 22:45:00,75.7,74.0,30.01,SW,222,0.0,0.0,94,0.00,,,0.00,weatherlink.com 1.10,2013-07-11 02:45:00,
2013-07-10 23:00:00,75.5,74.0,30.01,SW,222,0.0,0.0,94,0.00,,,0.00,weatherlink.com 1.10,2013-07-11 03:00:00,
2013-07-10 23:15:00,75.3,74.0,30.01,SW,223,0.0,1.0,95,0.00,,,0.00,weatherlink.com 1.10,2013-07-11 03:15:00,
2013-07-10 23:30:00,75.1,74.0,30.01,SW,223,0.0,0.0,95,0.00,,,0.00,weatherlink.com 1.10,2013-07-11 03:30:00,
2013-07-10 23:45:00,75.0,74.0,30.01,SW,223,0.0,0.0,95,0.00,,,0.00,weatherlink.com 1.10,2013-07-11 03:45:00,